Delaware, OH

6:53 PM EDT on April 30, 2017 (GMT -0400)
Delaware Municipal

Weather History for KDLZ - December, 2013

Change the Weather History Date:

Saturday, December 21, 2013

  Actual Average Record
Temperature  
Mean Temperature 53 °F -  
Max Temperature 62 °F 37 °F 62 °F (2013)
Min Temperature 44 °F 21 °F -17 °F (1963)
Degree Days  
Heating Degree Days 12    
Growing Degree Days 3 (Base 50)    
Moisture  
Dew Point 51 °F    
Average Humidity 94    
Maximum Humidity 100    
Minimum Humidity 88    
Precipitation  
Precipitation 1.26 in - - ()
Sea Level Pressure  
Sea Level Pressure 29.73 in    
Wind  
Wind Speed 10 mph (SSW)    
Max Wind Speed 21 mph    
Max Gust Speed 33 mph    
Visibility 7 miles    
Events Rain    
Averages and records for this station are not official NWS values.
T = Trace of Precipitation, MM = Missing Value Source: NWS Daily Summary

Daily Weather History Graph

Daily Weather History Graph

Search for Another Location

Airport or City:

Trip Planner

Search our weather history database for the weather conditions in past years. The results will help you decide how hot, cold, wet, or windy it might be!

Date:

Astronomy

Dec. 21, 2013 Rise Set
Actual Time 7:51 AM EST 5:09 PM EST
Civil Twilight 7:20 AM EST 5:40 PM EST
Nautical Twilight 6:46 AM EST 6:14 PM EST
Astronomical Twilight 6:13 AM EST 6:47 PM EST
Moon 9:25 PM EST (12/21) 10:16 AM EST (12/21)
Length of Visible Light 10h 19m
Length of Day
9h 17m
Waning Gibbous, 84% of the Moon is Illuminated
Dec 21
Waning Gibbous
Dec 25
Last Quarter
Jan 1
New
Jan 7
First Quarter
Jan 15
Full

Hourly Weather History & Observations

Time (EST) Temp. Windchill Dew Point Humidity Pressure Visibility Wind Dir Wind Speed Gust Speed Precip Events Conditions
12:19 AM 55.4 °F - 51.8 °F 88% 29.82 in 10.0 mi SSW 9.2 mph 18.4 mph 0.02 in   Overcast
12:39 AM 55.4 °F - 51.8 °F 88% 29.81 in 10.0 mi South 10.4 mph 18.4 mph 0.02 in   Overcast
12:58 AM 55.4 °F - 51.8 °F 88% 29.81 in 10.0 mi South 12.7 mph 24.2 mph 0.02 in   Overcast
1:19 AM 55.4 °F - 51.8 °F 88% 29.80 in 10.0 mi SSW 17.3 mph 23.0 mph N/A   Overcast
1:39 AM 55.4 °F - 51.8 °F 88% 29.80 in 5.0 mi SSW 15.0 mph 20.7 mph 0.01 in Rain Rain
1:58 AM 55.4 °F - 53.6 °F 94% 29.80 in 7.0 mi SSW 16.1 mph 21.9 mph 0.04 in Rain Rain
2:19 AM 55.4 °F - 53.6 °F 94% 29.80 in 7.0 mi SSW 12.7 mph 24.2 mph 0.02 in Rain Rain
2:39 AM 55.4 °F - 53.6 °F 94% 29.81 in 10.0 mi SSW 13.8 mph 19.6 mph 0.04 in Rain Light Rain
2:58 AM 55.4 °F - 53.6 °F 94% 29.81 in 7.0 mi SSW 11.5 mph 18.4 mph 0.05 in Rain Rain
3:19 AM 55.4 °F - 53.6 °F 94% 29.81 in 7.0 mi SSW 9.2 mph - 0.01 in Rain Rain
3:38 AM 55.4 °F - 51.8 °F 88% 29.81 in 7.0 mi SSW 8.1 mph - 0.02 in   Drizzle
3:58 AM 55.4 °F - 51.8 °F 88% 29.80 in 4.0 mi SSW 13.8 mph 17.3 mph 0.04 in Rain Rain
4:19 AM 55.4 °F - 51.8 °F 88% 29.80 in 7.0 mi SSW 13.8 mph - 0.03 in Rain Rain
4:38 AM 55.4 °F - 51.8 °F 88% 29.80 in 7.0 mi SSW 10.4 mph - 0.05 in Rain Rain
4:58 AM 53.6 °F - 51.8 °F 94% 29.80 in 4.0 mi SSW 10.4 mph - 0.08 in Rain Heavy Rain
5:19 AM 53.6 °F - 51.8 °F 94% 29.79 in 5.0 mi South 10.4 mph - 0.04 in Rain Rain
5:38 AM 53.6 °F - 51.8 °F 94% 29.79 in 10.0 mi South 11.5 mph - 0.07 in Rain Light Rain
5:58 AM 53.6 °F - 51.8 °F 94% 29.78 in 10.0 mi South 11.5 mph 18.4 mph 0.11 in   Light Drizzle
6:19 AM 53.6 °F - 51.8 °F 94% 29.78 in 10.0 mi South 12.7 mph 18.4 mph 0.03 in   Light Drizzle
6:38 AM 55.4 °F - 51.8 °F 88% 29.78 in 5.0 mi SSW 16.1 mph 21.9 mph 0.05 in Rain Light Rain
6:58 AM 53.6 °F - 51.8 °F 94% 29.79 in 5.0 mi SSW 15.0 mph 18.4 mph 0.08 in Rain Rain
7:19 AM 53.6 °F - 51.8 °F 94% 29.79 in 7.0 mi SSW 13.8 mph 20.7 mph 0.03 in Rain Rain
7:38 AM 55.4 °F - 53.6 °F 94% 29.79 in 7.0 mi South 11.5 mph - 0.05 in Rain Light Rain
7:58 AM 55.4 °F - 53.6 °F 94% 29.78 in 7.0 mi South 9.2 mph 16.1 mph 0.07 in Rain Rain
8:19 AM 55.4 °F - 53.6 °F 94% 29.78 in 7.0 mi South 9.2 mph - 0.02 in Rain Light Rain
8:38 AM 55.4 °F - 53.6 °F 94% 29.78 in 7.0 mi South 8.1 mph - 0.04 in Rain Rain
8:59 AM 55.4 °F - 53.6 °F 94% 29.78 in 5.0 mi South 8.1 mph - 0.05 in Rain Rain
9:19 AM 55.4 °F - 53.6 °F 94% 29.78 in 5.0 mi South 9.2 mph - 0.02 in Rain Rain
9:38 AM 55.4 °F - 53.6 °F 94% 29.78 in 5.0 mi South 12.7 mph 17.3 mph 0.03 in Rain Rain
9:59 AM 55.4 °F - 53.6 °F 94% 29.77 in 7.0 mi South 12.7 mph 18.4 mph 0.05 in Rain Light Rain
10:19 AM 55.4 °F - 53.6 °F 94% 29.78 in 7.0 mi South 13.8 mph 19.6 mph 0.02 in Rain Light Rain
10:38 AM 55.4 °F - 53.6 °F 94% 29.78 in 7.0 mi South 12.7 mph - 0.03 in Rain Light Rain
10:59 AM 55.4 °F - 53.6 °F 94% 29.79 in 7.0 mi SSW 17.3 mph 21.9 mph 0.05 in   Drizzle
11:18 AM 55.4 °F - 53.6 °F 94% 29.79 in 10.0 mi WSW 10.4 mph 20.7 mph 0.01 in   Drizzle
11:38 AM 46.4 °F 40.1 °F 44.6 °F 93% 29.79 in 2.0 mi North 15.0 mph - 0.02 in Rain Heavy Rain
11:59 AM 44.6 °F 40.7 °F 44.6 °F 100% 29.78 in 4.0 mi North 6.9 mph - 0.05 in Rain Heavy Rain
12:19 PM 44.6 °F 41.4 °F 44.6 °F 100% 29.77 in 5.0 mi North 5.8 mph - 0.03 in Rain Rain
12:38 PM 44.6 °F 42.2 °F 44.6 °F 100% 29.76 in 7.0 mi North 4.6 mph - 0.06 in Rain Light Rain
12:59 PM 44.6 °F 41.4 °F 44.6 °F 100% 29.74 in 7.0 mi North 5.8 mph - 0.09 in Rain Rain
1:19 PM 44.6 °F 40.7 °F 44.6 °F 100% 29.74 in 5.0 mi NNE 6.9 mph - 0.02 in Rain Rain
1:38 PM 44.6 °F 42.2 °F 44.6 °F 100% 29.73 in 7.0 mi NNE 4.6 mph - 0.05 in Rain Rain
1:59 PM 46.4 °F - 44.6 °F 93% 29.73 in 5.0 mi Calm Calm - 0.08 in Rain Rain
2:18 PM 46.4 °F - 44.6 °F 93% 29.72 in 7.0 mi Calm Calm - 0.03 in Rain Rain
2:38 PM 46.4 °F - 44.6 °F 93% 29.72 in 7.0 mi Calm Calm - 0.06 in Rain Light Rain
2:59 PM 46.4 °F - 44.6 °F 93% 29.72 in 10.0 mi Calm Calm - 0.09 in Rain Rain
3:19 PM 46.4 °F - 44.6 °F 93% 29.71 in 4.0 mi Calm Calm - 0.02 in Rain Rain
3:38 PM 48.2 °F - 46.4 °F 93% 29.71 in 2.5 mi Calm Calm - 0.05 in Rain Rain
3:59 PM 50.0 °F - 50.0 °F 100% 29.70 in 2.5 mi SSE 5.8 mph - 0.08 in Rain Heavy Rain
4:18 PM 53.6 °F - 51.8 °F 94% 29.70 in 4.0 mi South 5.8 mph - 0.02 in   Drizzle
4:38 PM 53.6 °F - 53.6 °F 100% 29.70 in 7.0 mi SSE 6.9 mph - 0.04 in Rain Rain
4:59 PM 55.4 °F - 55.4 °F 100% 29.70 in 10.0 mi South 8.1 mph - 0.06 in   Drizzle
5:18 PM 57.2 °F - 55.4 °F 94% 29.69 in 10.0 mi South 11.5 mph - 0.02 in Rain Light Rain
5:38 PM 57.2 °F - 55.4 °F 94% 29.68 in 7.0 mi SSE 10.4 mph - 0.04 in Rain Light Rain
5:59 PM 55.4 °F - 55.4 °F 100% 29.69 in 10.0 mi South 12.7 mph - 0.06 in   Overcast
6:18 PM 53.6 °F - 51.8 °F 94% 29.72 in 10.0 mi NW 10.4 mph 26.5 mph 0.01 in   Overcast
6:38 PM 51.8 °F - 50.0 °F 94% 29.73 in 10.0 mi NW 3.5 mph - 0.03 in Rain Light Rain
6:59 PM 50.0 °F - 48.2 °F 94% 29.71 in 10.0 mi North 4.6 mph - 0.04 in   Overcast
7:18 PM 48.2 °F - 46.4 °F 93% 29.71 in 10.0 mi Calm Calm - 0.01 in   Overcast
7:38 PM 46.4 °F 44.3 °F 46.4 °F 100% 29.68 in 10.0 mi North 4.6 mph - 0.02 in Rain Light Rain
7:59 PM 46.4 °F 45.2 °F 46.4 °F 100% 29.68 in 10.0 mi North 3.5 mph - 0.03 in   Overcast
8:18 PM 48.2 °F - 46.4 °F 93% 29.66 in 10.0 mi Calm Calm - N/A   Overcast
8:38 PM 48.2 °F - 46.4 °F 93% 29.64 in 10.0 mi NNW 3.5 mph - N/A   Light Drizzle
8:59 PM 48.2 °F - 46.4 °F 93% 29.63 in 10.0 mi NW 4.6 mph - N/A   Overcast
9:18 PM 50.0 °F - 48.2 °F 94% 29.62 in 10.0 mi Calm Calm - N/A   Overcast
9:38 PM 55.4 °F - 53.6 °F 94% 29.58 in 7.0 mi SSE 9.2 mph - N/A   Overcast
9:59 PM 59.0 °F - 59.0 °F 100% 29.55 in 10.0 mi SSE 19.6 mph 24.2 mph N/A   Overcast
10:18 PM 60.8 °F - 59.0 °F 94% 29.53 in 10.0 mi South 17.3 mph 27.6 mph N/A   Overcast
10:39 PM 60.8 °F - 59.0 °F 94% 29.49 in 10.0 mi SSE 20.7 mph 28.8 mph 0.01 in Rain Light Rain
10:59 PM 62.6 °F - 59.0 °F 88% 29.47 in 10.0 mi South 18.4 mph 32.2 mph 0.01 in   Overcast
11:18 PM 62.6 °F - 59.0 °F 88% 29.47 in 10.0 mi South 18.4 mph 33.4 mph N/A   Overcast
11:39 PM 62.6 °F - 59.0 °F 88% 29.53 in 7.0 mi West 19.6 mph 25.3 mph N/A Rain Rain
11:59 PM 59.0 °F - 57.2 °F 94% 29.53 in 1.2 mi WSW 17.3 mph 28.8 mph 0.03 in Rain Heavy Rain